Flag for Estonia Weather past 2 weeks in Tartu, Estonia

Now
19 °F

Cold.


Feels Like: 11 °F
Forecast: 22 / 35 °F
Wind: 6 mph from Northeast

Location: Tartu/Ulenurme

Current Time: Oct 23, 2014 at 5:33:17 AM

Latest Report: Oct 23, 2014 at 4:50 AM


Visibility: N/A

Pressure: 30.39 "Hg

Humidity: 73%

Dew point: 12 °F

Location of TartuLocation

Historic Weather in Tartu — Graph

°F

Tartu temperature yesterday

Maximum temperature yesterday: 30 °F (at 12:50 AM)
Minimum temperature yesterday: 27 °F (at 7:50 AM)
Average temperature yesterday: 28 °F

Past Weeks' High & Low Weather Summary

 TemperatureHumidityPressure
High59 °F (Oct 10, 12:50 PM)100% (Oct 10, 12:50 AM)30.39 "Hg (Oct 10, 12:50 AM)
Low19 °F (Oct 23, 3:50 AM)47% (Oct 22, 4:50 PM)29.30 "Hg (Oct 20, 2:50 PM)
Average43 °F82%29.89 "Hg
* Reported Oct 8 3:50 AM — Oct 23 3:50 AM, Tartu, Weather by CustomWeather, © 2014

Note: Actual official high and low records may vary slightly from our data, if they occured in-between our weather recording intervals... More about our weather records

Advertising

Tartu weather history for previous 24 hours

 ConditionsComfort  
Time TempWeatherWind HumidityBarometerVisibility
3:50 AM
Oct 23
19 °FCold.5 mph73%30.39 "HgN/A
2:50 AM21 °FPassing clouds.6 mph68%30.39 "HgN/A
1:50 AM23 °FOvercast.9 mph63%30.36 "HgN/A
12:50 AM23 °FOvercast.8 mph68%30.33 "HgN/A
11:50 PM
Oct 22
27 °FOvercast.13 mph59%30.33 "HgN/A
10:50 PM27 °FOvercast.13 mph64%30.27 "HgN/A
9:50 PM27 °FOvercast.12 mph69%30.24 "HgN/A
8:50 PM27 °FChilly.8 mph64%30.21 "HgN/A
7:50 PM27 °FChilly.7 mph64%30.18 "HgN/A
6:50 PM27 °FClear.6 mph54%30.18 "Hg10 mi
5:50 PM28 °FClear.9 mph51%30.18 "HgN/A
4:50 PM30 °FClear.10 mph47%30.18 "HgN/A
3:50 PM30 °FSunny.12 mph51%30.15 "Hg10 mi
2:50 PM30 °FPassing clouds.12 mph51%30.15 "HgN/A
1:50 PM30 °FPassing clouds.14 mph51%30.12 "HgN/A
12:50 PM30 °FScattered clouds.14 mph55%30.09 "HgN/A
11:50 AM28 °FScattered clouds.13 mph64%30.09 "HgN/A
10:50 AM28 °FPartly sunny.13 mph64%30.07 "HgN/A
9:50 AM27 °FPartly sunny.15 mph69%30.07 "HgN/A
8:50 AM27 °FPassing clouds.16 mph69%30.04 "HgN/A
7:50 AM27 °FOvercast.15 mph69%30.01 "HgN/A
6:50 AM28 °FOvercast.13 mph64%30.01 "HgN/A
5:50 AM28 °FOvercast.13 mph69%29.98 "HgN/A
Weather by CustomWeather, © 2014

See weather overviewHow to use our weather pages